Starlink 32513

operational
NORAD ID: 61964 Int'l Des: 2024-210 Owner: SPXS Country: US Constellation: starlink
LEOCIRCULAR

About Starlink 32513

Description loading...

Live Position

Loading 3D Globe...

Upcoming Passes

Altitude History

Altitude vs Time

uPlot chart will show altitude changes over time

Two-Line Element Set

1 61964U 24210F 25258.00010417 .00062565 00000-0 22664-2 0 9996
2 61964 43.0023 77.5305 0001516 270.4187 248.3576 15.27543324 5915
Epoch: Sep 15, 2025 • Age: 18 hours

Current Status

Altitude 491.7 km
Velocity 7.62 km/s
Sub-Earth Point -34.05°S, 40.63°E
Launch Date Nov 14, 2024
Age 0.8 years
Type internet

Technical Details

Classification Payload
Mass 730.00 kg
Dry Mass 700.00 kg
Total Mass 730.00 kg
Length 0.30 m
Diameter 4.10 m
Span 29.00 m
Shape Box + pan
Manufacturer SPXS
Bus Type Starlink V2M
Phase Status In Orbit
Owner/State SPXS/US

Large Constellations

Loading constellations...